Tracking 32139 objects as of 16-Nov-2025
HD Live streaming from Space Station
objects crossing your sky now

STARLINK-34949

Track STARLINK-34949 now!
10-day predictions
STARLINK-34949 is classified as:


NORAD ID: 65175
Int'l Code: 2025-175B
Perigee: 554.9 km
Apogee: 558.3 km
Inclination: 97.6 °
Period: 95.6 minutes
Semi major axis: 6927 km
RCS: Unknown
Launch date: August 14, 2025
Source: United States (US)
Launch site: AIR FORCE WESTERN TEST RANGE (AFWTR)
Your satellite tracking list
Your tracking list is empty




NASA's NSSDC Master Catalog

Two Line Element Set (TLE):
1 65175U 25175B   25319.63187081  .00008817  00000-0  61421-3 0  9999
2 65175  97.6022 190.1642 0002398  78.3088 281.8408 15.05666904 15482
Source of the keplerian elements: AFSPC